Location: Unspecified
(0.0000°N, 0.0000°E)
Time: 16:07:42
(UTC+00:00)

deb Kosmos-1275 - Pass Details

Date: 12 March 2026
Orbit: 897 x 929 km, 83.0° (Epoch: 18 April)

Event Time Altitude Azimuth Distance (km) Brightness Sun altitude
Rises 19:49:37 0° 176° (S) 3,532 ? -24.9°
Reaches altitude 10° 19:52:06 10° 172° (S) 2,593 ? -25.6°
Enters shadow 19:55:30 35° 158° (SSE) 1,431 ? -26.4°
